STARLINK-11091 [DTC] (61207 NORAD) Tracking and Keplerian Element Data

This shows tracking and keplerian element data for the satellite.

Feedback or suggestion? Click here.




ElementValue
Catalog61207
NameSTARLINK-11091 [DTC]
Epoch Orbit382
Epoch Day286.75658734
Epoch Year2024
RAAN185.8129
Inclination53.1578
Eccentricity0.0001472
Argument of Perigee46.4485
Mean Anonmoly313.6658
Mean Motion15.76783941
Decay Rate0.00060968
L11 61207U 24171H 24286.75658734 .00060968 00000+0 37292-3 0 9992
L22 61207 53.1578 185.8129 0001472 46.4485 313.6658 15.76783941 3822



Live tracking and technical data element details for STARLINK-11091 [DTC] (NORAD 61207). STARLINK-11091 [DTC] can be tracked NOW for your location showing map with azimuth and elevation plus other details from your city location.







IsCatalogInMostPopularTable: catalog: 61207, numindb: 24
Update: records affected: 1



GetName: 61207 STARLINK-11091 [DTC]

Hit Count: updated at: Wed, 04 Dec 2024 09:38:32 GMT